Location: Northcutt
(34.7304°N, 84.4305°W)
Time: 20:41:42
(UTC+00:00)

A-11 Canister half - Pass Details

Date: 09 October 2022
Orbit: 1524 x 1685 km, 47.3° (Epoch: 05 December)

Event Time Altitude Azimuth Distance (km) Brightness Sun altitude
Rises 01:37:55 0° 305° (NW) 4,703 12.6 -30.6°
Reaches altitude 10° 01:40:56 10° 304° (NW) 3,733 11.8 -31.2°
Maximum altitude 01:50:25 83° 218° (SW) 1,597 8.9 -33.1°
Enters shadow 01:51:54 68° 148° (SSE) 1,689 8.9 -33.4°
